Home   Weather   Rzeszów   Past weeks

Flag for Poland Past Weather in Rzeszów, Poland — Yesterday and Last 2 Weeks

46 °F


Feels Like: 43 °F
Forecast: 41 / 52 °F
Wind: 7 mph from East

Location: Rzeszow-Jasionka

Current Time: Oct 25, 2016 at 7:04:12 AM

Latest Report: Oct 25, 2016 at 6:30 AM

Visibility: 10 mi

Pressure: 30.07 "Hg

Humidity: 100%

Dew Point: 46 °F

Location of RzeszówLocation

Past Weather in Rzeszów — Graph


Rzeszów Temperature Yesterday

Maximum temperature yesterday: 61 °F (at 1:30 PM)
Minimum temperature yesterday: 39 °F (at 1:30 AM)
Average temperature yesterday: 49 °F

High & Low Weather Summary for the Past Weeks

High61 °F (Oct 24, 1:30 PM)100% (Oct 10, 6:00 AM)30.45 "Hg (Oct 10, 6:00 AM)
Low28 °F (Oct 14, 2:30 AM)55% (Oct 24, 1:30 PM)29.92 "Hg (Oct 22, 3:00 AM)
Average43 °F89%30.14 "Hg
* Reported Oct 10 6:00 AM — Oct 25 6:00 AM, Rzeszów, Weather by CustomWeather, © 2016

Note: Actual official high and low records may vary slightly from our data, if they occured in-between our weather recording intervals... More about our weather records


Rzeszów Weather History for the Previous 24 Hours

Scroll right to see more
Time TempWeatherWind HumidityBarometerVisibility
6:00 AM
Tue, Oct 25
46 °FClear.6 mph93%30.07 "Hg10 mi
5:30 AM46 °FPassing clouds.7 mph93%30.07 "HgN/A
5:00 AM46 °FClear.3 mph93%30.07 "Hg10 mi
4:30 AM48 °FPassing clouds.7 mph94%30.07 "HgN/A
4:00 AM48 °FPassing clouds.5 mph94%30.09 "HgN/A
3:30 AM46 °FClear.9 mph93%30.09 "Hg4 mi
3:00 AM45 °FClear.7 mph100%30.09 "Hg10 mi
2:30 AM45 °FClear.8 mph100%30.09 "Hg10 mi
2:00 AM48 °FClear.8 mph94%30.09 "Hg10 mi
1:00 AM48 °FPassing clouds.8 mph94%30.12 "HgN/A
12:30 AM48 °FClear.8 mph87%30.12 "Hg10 mi
12:00 AM48 °FClear.7 mph94%30.12 "Hg10 mi
11:30 PM
Mon, Oct 24
46 °FClear.6 mph93%30.12 "Hg10 mi
11:00 PM46 °FClear.7 mph93%30.12 "Hg10 mi
10:30 PM46 °FClear.7 mph93%30.12 "Hg10 mi
10:00 PM50 °FPassing clouds.7 mph94%30.12 "HgN/A
9:30 PM54 °FClear.8 mph82%30.12 "Hg10 mi
9:00 PM54 °FClear.7 mph82%30.12 "Hg10 mi
8:30 PM55 °FClear.9 mph77%30.12 "Hg10 mi
8:00 PM55 °FClear.8 mph77%30.15 "Hg10 mi
7:30 PM54 °FClear.8 mph82%30.15 "Hg10 mi
7:00 PM54 °FClear.7 mph82%30.15 "Hg10 mi
6:30 PM55 °FClear.9 mph77%30.15 "Hg10 mi
6:00 PM55 °FClear.6 mph77%30.12 "Hg10 mi
5:30 PM57 °FPassing clouds.12 mph72%30.12 "HgN/A
5:00 PM57 °FSunny.14 mph72%30.12 "Hg10 mi
4:30 PM57 °FPassing clouds.15 mph72%30.12 "HgN/A
4:00 PM57 °FPassing clouds.15 mph72%30.12 "HgN/A
3:30 PM59 °FPassing clouds.20 mph68%30.12 "HgN/A
3:00 PM59 °FPassing clouds.16 mph68%30.12 "HgN/A
2:30 PM59 °FPassing clouds.15 mph68%30.12 "HgN/A
2:00 PM59 °FPassing clouds.16 mph63%30.12 "HgN/A
1:30 PM61 °FPassing clouds.14 mph55%30.15 "HgN/A
1:00 PM59 °FPassing clouds.14 mph59%30.12 "HgN/A
12:30 PM59 °FPassing clouds.14 mph63%30.15 "HgN/A
12:00 PM55 °FPassing clouds.10 mph77%30.15 "HgN/A
11:30 AM50 °FPassing clouds.13 mph88%30.15 "HgN/A
11:00 AM50 °FPassing clouds.14 mph88%30.15 "HgN/A
10:30 AM48 °FSunny.14 mph94%30.15 "Hg10 mi
10:00 AM46 °FSunny.13 mph93%30.15 "Hg10 mi
9:30 AM45 °FSunny.12 mph93%30.15 "Hg10 mi
9:00 AM45 °FSunny.9 mph93%30.18 "Hg10 mi
8:30 AM45 °FSunny.12 mph93%30.15 "Hg10 mi
8:00 AM43 °FSunny.14 mph100%30.15 "Hg10 mi
7:30 AM43 °FSunny.12 mph100%30.18 "Hg10 mi
7:00 AM43 °FClear.10 mph93%30.15 "Hg6 mi
Weather by CustomWeather, © 2016

See weather overviewHow to use our weather pages